AirNav  
 
 1118 users online  

7FL6 Spruce Creek Airport
Daytona Beach, Florida, USA

GOING TO DAYTONA BEACH?


FAA INFORMATION EFFECTIVE 07 DECEMBER 2017

Location

FAA Identifier: 7FL6
Lat/Long: 29-04-48.6750N / 081-02-47.8650W
29-04.811250N / 081-02.797750W
29.0801875 / -81.0466292
(estimated)
Elevation: 23.5 ft. / 7 m (estimated)
Variation: 05W (2000)
From city: 7 miles S of DAYTONA BEACH, FL
Time zone: UTC -5 (UTC -4 during Daylight Saving Time)
Zip code: 32124

Airport Operations

Airport use: Private use. Permission required prior to landing
Activation date: 01/1970
Control tower: no
ARTCC: JACKSONVILLE CENTER
FSS: SAINT PETERSBURG FLIGHT SERVICE STATION
NOTAMs facility: FDC (NOTAM-D service not available)
Attendance: 0800-DUSK
Wind indicator: yes
Segmented circle: yes
Lights: MIRL RY 05/23 PRESET ON LOW INTST DUSK-DAWN; TO INCR INTST ACTVT - 122.975.
Beacon: white-green (lighted land airport)
ROTG BCN LCTD APRXLY 1400 FT SE (PERPENDICULAR) FROM MID-POINT OF RY 05/23 ON 50 FT ANT POLE. Operates sunset to sunrise.

Airport Communications

UNICOM: 122.975
WX AWOS-3 at EVB (5 nm E): 124.625 (386-409-4705)
WX ASOS at DAB (6 nm N): PHONE 386-253-7469
WX AWOS-3 at DED (12 nm W): 119.575 (386-740-5811)
WX AWOS-3 at OMN (14 nm N): 118.475 (386-615-7084)

Nearby radio navigation aids

VOR radial/distance  VOR name  Freq  Var
OMNr166/13.8ORMOND BEACH VORTAC112.6000E
ORLr025/35.6ORLANDO VORTAC112.2000E

Airport Services

Fuel available: 100LL JET-A+
FUEL 24 HR CREDIT CARD SVC AVBL. TRUCK SVC AVBL.
Parking: tiedowns
Airframe service: MINOR
Powerplant service: MINOR

Runway Information

Runway 5/23

Dimensions: 4000 x 176 ft. / 1219 x 54 m
Surface: asphalt, in good condition
Runway edge lights: medium intensity
RUNWAY 5  RUNWAY 23
Latitude: 29-04.607000N29-05.015500N
Longitude: 081-03.092667W081-02.502833W
Elevation: 21.9 ft.22.7 ft.
Traffic pattern: leftleft
Displaced threshold: 346 ft.346 ft.
Markings: nonprecision, in good conditionnonprecision, in good condition
Visual slope indicator: 2-light PAPI on left (3.00 degrees glide path)
Runway end identifier lights: yesyes
Touchdown point: yes, no lightsyes, no lights
Obstructions: 50 ft. trees, 1200 ft. from runway, 20:1 slope to clear50 ft. trees, 1500 ft. from runway, 26:1 slope to clear

Airport Ownership and Management from official FAA records

Ownership: Privately-owned
Owner: SPRUCE CREEK PROPERTY OWNERS ASSN
212-1 CESSNA BLVD
PORT ORANGE, FL 32128
Phone (386) 760-5884
Manager: JOE FRIEND
212-1 CESSNA BLVD
PORT ORANGE, FL 32128
Phone (386) 275-1894

Airport Operational Statistics

Aircraft based on the field: 508
Single engine airplanes: 400
Multi engine airplanes: 90
Jet airplanes: 10
Helicopters: 5
Gliders airplanes: 1
Ultralights: 2
    
Aircraft operations: avg 60/day
91% local general aviation
9% transient general aviation

Additional Remarks

RY 05/23 TREES IN PRIM SFC BOTH SIDES 118' FM CNTRLN.
PPR.
FOR CD OR TO CNL IFR CTC DAB APCH AT 386-226-3939.

Instrument Procedures

There are no published instrument procedures at 7FL6.

Some nearby airports with instrument procedures:

KEVB - New Smyrna Beach Municipal Airport (5 nm E)
KDAB - Daytona Beach International Airport (6 nm N)
X50 - Massey Ranch Airpark (9 nm SE)
KDED - DeLand Municipal Airport-Sidney H Taylor Field (12 nm W)
KOMN - Ormond Beach Municipal Airport (14 nm N)
 
Loc | Ops | Rwys | IFR | FBO | Links
Com | Nav | Svcs | Stats | Notes


 
Area around 7FL6 (Spruce Creek Airport)
 
Road maps at: MapQuest Bing Google
 
Aerial photo
WARNING: Photo may not be current or correct
Aerial photo of 7FL6 (Spruce Creek Airport)
Photo by John Carpenter
Photo taken 19-Aug-2017
looking northeast.

Do you have a better or more recent aerial photo of Spruce Creek Airport that you would like to share? If so, please send us your photo.

 
Sectional chart

 
Airport distance calculator
Flying to Spruce Creek Airport? Find the distance to fly.

From to 7FL6

Sunrise and sunset
Times for 13-Dec-2017
 Local
(UTC-5)
 Zulu
(UTC)
Morning civil twilight06:4411:44
Sunrise07:1012:10
Sunset17:2722:27
Evening civil twilight17:5322:53

Current date and time
Zulu (UTC)  13-Dec-2017 22:57:48
Local (UTC-5)  13-Dec-2017 17:57:48
 
METAR
7FL6 SuperAWOS
132155Z AUTO 00000KT 10SM 16/M01 A3003
KEVB 
5nm E 
132250Z 00000KT 10SM SKC 12/00 A3005
KDAB 
6nm N 
132253Z 00000KT 10SM FEW200 11/02 A3003 RMK AO2 SLP169 T01110022
KDED 
12nm W 
132235Z AUTO 27003KT 10SM CLR 13/M02 A3003 RMK AO2
KOMN 
14nm N 
132247Z 23003KT 10SM SKC 10/01 A3003
TAF
KDAB 
6nm N 
131720Z 1318/1418 29009KT P6SM SKC FM140000 23003KT P6SM SKC FM141500 23008KT P6SM SCT040
NOTAMs
Click for the latest NOTAMs
NOTAMs are issued by the DoD/FAA and will open in a separate window not controlled by AirNav.

 

 
 

Would you like to see your business listed on this page?

 If your business provides an interesting product or service to pilots, flight crews, aircraft, or users of the Spruce Creek Airport, you should consider listing it here.  To start the listing process, click on the button below
 
Add a business
 

Other Pages about Spruce Creek Airport

scpoa.com/airport
 
Update a link
 
Copyright © AirNav, LLC. All rights reserved. Privacy Policy  Contact